AE7MK-13 Weather Reports


time (UTC)temp
F
wind
direction
speed
knots
gust
knots
rain 1hr
in
rain 24hr
in
rain mn
in
humidity
%
barometer
mb
20260502163003 60 3 6.1 13.0 0.00 0.00 0.00 40 1018.7
20260502162003 60 5 7.8 13.0 0.00 0.00 0.00 39 1018.7
20260502161003 61 357 7.0 13.0 0.00 0.00 0.00 39 1018.7
20260502152214 60 3 3.5 7.8 0.00 0.00 0.00 44 1018.7
20260502151003 58 11 0.0 0.9 0.00 0.00 0.00 46 1018.9
20260502123003 57 9 6.1 10.4 0.00 0.00 0.00 45 1017.5
20260502122003 57 15 6.1 12.2 0.00 0.00 0.00 46 1017.5
20260502121213 56 10 7.0 12.2 0.00 0.00 0.00 47 1017.8
20260502115003 54 342 2.6 6.1 0.00 0.00 0.00 51 1018.2
20260502114003 54 325 1.7 5.2 0.00 0.00 0.00 53 1018.3
20260502113003 54 317 1.7 6.1 0.00 0.00 0.00 52 1018.4
20260502112213 55 313 1.7 7.8 0.00 0.00 0.00 51 1018.4
20260502111213 54 340 0.9 5.2 0.00 0.00 0.00 53 1018.3
20260502110003 54 347 2.6 5.2 0.00 0.00 0.00 56 1018.2
20260502105214 54 335 1.7 5.2 0.00 0.00 0.00 55 1018.2
20260502104003 54 329 1.7 5.2 0.00 0.00 0.00 54 1018.2
20260502103003 55 359 2.6 7.0 0.00 0.00 0.00 53 1018.2
20260502101003 55 297 7.0 7.8 0.00 0.00 0.00 50 1018.4
20260502091214 51 327 1.7 3.5 0.00 0.00 0.00 58 1018.1
20260502071003 49 330 3.5 5.2 0.00 0.00 0.00 60 1018.2
20260502070003 49 328 2.6 4.3 0.00 0.00 0.00 61 1018.1
20260502065003 49 336 2.6 5.2 0.00 0.00 0.00 60 1018.1
20260502064003 49 334 3.5 6.1 0.00 0.00 0.00 59 1018.1
20260502063003 50 335 4.3 5.2 0.00 0.00 0.00 58 1018.1
20260502062003 51 334 2.6 5.2 0.00 0.00 0.00 55 1018.2
20260502061003 51 332 2.6 5.2 0.00 0.00 0.00 55 1018.1
20260502060003 51 326 3.5 4.3 0.00 0.00 0.00 55 1018.0
20260502055003 50 324 3.5 5.2 0.00 0.00 0.00 57 1018.1
20260502054003 50 323 0.9 3.5 0.00 0.00 0.00 57 1018.1
20260502053003 50 334 2.6 4.3 0.00 0.00 0.00 56 1018.1
20260502052213 51 334 2.6 4.3 0.00 0.00 0.00 55 1018.1
20260502051003 51 328 2.6 5.2 0.00 0.00 0.00 55 1018.0
20260502050004 50 336 4.3 6.1 0.00 0.00 0.00 57 1018.1
20260502045212 51 335 3.5 5.2 0.00 0.00 0.00 55 1018.2
20260502044005 50 335 3.5 4.3 0.00 0.00 0.00 55 1018.2
20260502043003 50 333 3.5 5.2 0.00 0.00 0.00 56 1018.1
20260502042003 51 335 2.6 5.2 0.00 0.00 0.00 54 1018.1
20260502041003 52 335 3.5 5.2 0.00 0.00 0.00 55 1017.8
20260502040003 52 335 2.6 3.5 0.00 0.00 0.00 53 1017.8
20260502035214 53 332 2.6 4.3 0.00 0.00 0.00 52 1017.7
20260502034003 53 331 3.5 5.2 0.00 0.00 0.00 54 1017.6
20260502033003 56 326 1.7 3.5 0.00 0.00 0.00 50 1017.6
20260502032003 55 326 1.7 3.5 0.00 0.00 0.00 51 1017.5
20260502031004 57 0 0.0 0.0 0.00 0.00 0.00 47 1017.5
20260502030003 58 0 0.0 0.0 0.00 0.00 0.00 47 1017.4
20260502025213 59 91 0.0 0.9 0.00 0.00 0.00 47 1017.4
20260502024213 59 0 0.0 0.0 0.00 0.00 0.00 44 1017.4
20260502023003 60 89 0.0 0.9 0.00 0.00 0.00 43 1017.3
20260502022004 60 0 0.0 0.0 0.00 0.00 0.00 42 1017.3
20260502021003 61 123 0.0 2.6 0.00 0.00 0.00 40 1017.3
20260502020213 62 0 0.0 0.0 0.00 0.00 0.00 39 1017.3
20260502015003 62 102 0.9 2.6 0.00 0.00 0.00 39 1017.3
20260502014003 62 119 0.9 2.6 0.00 0.00 0.00 40 1017.4
20260502013003 62 149 2.6 4.3 0.00 0.00 0.00 39 1017.5
20260502012003 62 151 3.5 6.1 0.00 0.00 0.00 38 1017.5
20260502011003 62 138 3.5 7.8 0.00 0.00 0.00 38 1017.5
20260502010003 63 133 2.6 7.0 0.00 0.00 0.00 37 1017.6
20260502005003 63 130 3.5 7.8 0.00 0.00 0.00 36 1017.6
20260502004004 64 102 1.7 5.2 0.00 0.00 0.00 35 1017.5
20260502003003 64 142 1.7 5.2 0.00 0.00 0.00 35 1017.6
20260502002003 64 147 1.7 7.0 0.00 0.00 0.00 34 1017.7
20260502001003 64 208 0.9 4.3 0.00 0.00 0.00 35 1017.8
20260502000004 64 153 2.6 6.1 0.00 0.00 0.00 34 1017.9
20260501235003 64 157 3.5 6.1 0.00 0.00 0.00 35 1017.9
20260501234212 64 124 2.6 7.0 0.00 0.00 0.00 34 1017.9
20260501233003 63 112 2.6 7.0 0.00 0.00 0.00 34 1018.0
20260501232212 63 136 2.6 6.1 0.00 0.00 0.00 34 1018.1
20260501231003 63 90 3.5 7.0 0.00 0.00 0.00 33 1018.2
20260501230005 62 123 2.6 7.0 0.00 0.00 0.00 37 1018.2
20260501225214 62 109 3.5 7.0 0.00 0.00 0.00 36 1018.4
20260501224003 62 103 3.5 5.2 0.00 0.00 0.00 36 1018.5
20260501223003 62 117 3.5 7.8 0.00 0.00 0.00 36 1018.6
20260501222003 62 134 5.2 10.4 0.00 0.00 0.00 36 1018.7
20260501221003 62 143 4.3 7.8 0.00 0.00 0.00 35 1018.7
20260501220003 63 123 4.3 8.7 0.00 0.00 0.00 35 1018.7
20260501215003 64 146 3.5 9.6 0.00 0.00 0.00 33 1018.8
20260501214003 63 109 4.3 8.7 0.00 0.00 0.00 34 1018.9
20260501213003 64 131 3.5 10.4 0.00 0.00 0.00 33 1018.8
20260501212003 65 132 3.5 7.8 0.00 0.00 0.00 31 1018.9
20260501211003 65 120 1.7 8.7 0.00 0.00 0.00 31 1018.9
20260501210004 65 131 2.6 8.7 0.00 0.00 0.00 31 1019.0
20260501205003 65 120 3.5 7.8 0.00 0.00 0.00 32 1019.1
20260501204213 65 112 2.6 6.1 0.00 0.00 0.00 33 1019.0
20260501203003 65 171 1.7 6.1 0.00 0.00 0.00 28 1019.2
20260501202003 64 171 2.6 7.8 0.00 0.00 0.00 30 1019.2
20260501201004 63 143 2.6 7.8 0.00 0.00 0.00 32 1019.3
20260501200004 63 82 3.5 7.8 0.00 0.00 0.00 33 1019.3
20260501195003 63 118 0.9 5.2 0.00 0.00 0.00 31 1019.4
20260501194003 62 194 1.7 6.1 0.00 0.00 0.00 31 1019.4
20260501193003 62 131 2.6 6.1 0.00 0.00 0.00 32 1019.5
20260501192003 61 122 3.5 7.8 0.00 0.00 0.00 33 1019.5
20260501191003 62 174 2.6 7.8 0.00 0.00 0.00 33 1019.5
20260501190003 62 167 4.3 7.0 0.00 0.00 0.00 31 1019.5
20260501185212 62 146 4.3 8.7 0.00 0.00 0.00 32 1019.6
20260501184003 62 171 0.9 8.7 0.00 0.00 0.00 33 1019.7
20260501183003 61 123 4.3 9.6 0.00 0.00 0.00 34 1019.8
20260501182003 61 153 3.5 7.8 0.00 0.00 0.00 33 1019.7
20260501181003 61 118 2.6 7.8 0.00 0.00 0.00 35 1019.7
20260501180003 60 95 3.5 7.0 0.00 0.00 0.00 35 1019.7
20260501175003 61 139 4.3 10.4 0.00 0.00 0.00 33 1019.8
20260501174003 61 181 4.3 9.6 0.00 0.00 0.00 31 1019.8
20260501173214 61 170 2.6 9.6 0.00 0.00 0.00 32 1019.8
20260501172214 61 202 2.6 7.8 0.00 0.00 0.00 32 1019.8
20260501171003 60 163 3.5 9.6 0.00 0.00 0.00 31 1019.7
20260501170214 60 162 3.5 7.8 0.00 0.00 0.00 33 1019.8
20260501165003 60 140 2.6 7.8 0.00 0.00 0.00 31 1019.7
20260501164003 60 186 4.3 8.7 0.00 0.00 0.00 30 1019.8